Flag for Germany Weather past 2 weeks in Hückelhoven, North Rhine-Westphalia, Germany

Now
63 °F

Partly sunny.


Feels Like: 63 °F
Forecast: 53 / 75 °F
Wind: 6 mph from Northwest

Location: Geilenkirchen Airport

Current Time: Jul 30, 2014 at 9:16:09 AM

Latest Report: Jul 30, 2014 at 7:50 AM


Visibility: 5 mi

Pressure: 29.92 "Hg

Humidity: 94%

Dew point: 61 °F

Location of HückelhovenLocation

Historic Weather in Hückelhoven — Graph

°F

Hückelhoven temperature yesterday

Maximum temperature yesterday: 79 °F (at 2:50 PM)
Minimum temperature yesterday: 63 °F (at 5:50 AM)
Average temperature yesterday: 68 °F

Past Weeks' High & Low Weather Summary

 TemperatureHumidityPressure
High84 °F (Jul 17, 3:50 PM)100% (Jul 17, 5:50 AM)30.18 "Hg (Jul 17, 5:50 AM)
Low57 °F (Jul 25, 6:50 AM)42% (Jul 16, 3:50 PM)29.83 "Hg (Jul 29, 2:50 PM)
Average70 °F82%30.00 "Hg
* Reported Jul 15 7:50 AM — Jul 30 7:50 AM, Hückelhoven, Weather by CustomWeather, © 2014

Note: Actual official high and low records may vary slightly from our data, if they occured in-between our weather recording intervals... More about our weather records

Advertising

Hückelhoven weather history for previous 24 hours

 ConditionsComfort  
Time TempWeatherWind HumidityBarometerVisibility
7:50 AM
Jul 30
63 °FPartly sunny.6 mph94%29.92 "Hg5 mi
6:50 AM63 °FOvercast.5 mph94%29.89 "Hg5 mi
5:50 AM63 °FPartly cloudy.7 mph94%29.89 "Hg5 mi
4:50 AM63 °FPartly cloudy.6 mph100%29.86 "Hg4 mi
3:50 AM64 °FPartly cloudy.7 mph100%29.86 "Hg4 mi
2:50 AM66 °FPartly cloudy.7 mph94%29.86 "Hg4 mi
1:50 AM66 °FPartly cloudy.8 mph100%29.86 "Hg4 mi
12:50 AM66 °FFog.7 mph100%29.86 "Hg2 mi
11:50 PM
Jul 29
68 °FSprinkles. Passing clouds.5 mph94%29.86 "Hg2 mi
10:50 PM66 °FThunderstorms. Passing clouds.7 mph100%29.86 "Hg2 mi
9:50 PM68 °FThunderstorms. Partly sunny.8 mph94%29.83 "Hg3 mi
8:50 PM68 °FThundershowers. Fog.8 mph94%29.83 "Hg3 mi
7:50 PM68 °FLight rain. Fog.7 mph100%29.83 "Hg2 mi
6:50 PM70 °FMostly cloudy.3 mph94%29.83 "Hg4 mi
5:50 PM68 °FBroken clouds.5 mph94%29.83 "Hg4 mi
4:50 PM66 °FThunderstorms. Partly sunny.3 mph100%29.83 "HgN/A
3:50 PM72 °FStrong thunderstorms. Partly sunny.17 mph88%29.86 "Hg2 mi
2:50 PM79 °FScattered clouds.7 mph79%29.83 "Hg4 mi
1:50 PM75 °FFog.7 mph83%29.86 "Hg3 mi
12:50 PM72 °FFog.3 mph94%29.86 "Hg2 mi
11:50 AM68 °FFog.5 mph94%29.86 "Hg1 mi
10:50 AM66 °FFog.7 mph100%29.86 "Hg0 mi
9:50 AM64 °FFog.6 mph100%29.86 "Hg1 mi
Weather by CustomWeather, © 2014

See weather overviewHow to use our weather pages